Regional Weather Roundup
Issued by NWS Charleston, WV

Home | Current Version | Previous Version | Graphics & Text | Print | Product List | Glossary On
Versions: 1 2 3 4 5 6 7 8 9 10 11 12 13 14 15 16 17 18 19 20 21 22 23 24 25 26 27
000
ASUS41 KRLX 270110
RWRRLX
West Virginia Regional Weather Roundup
National Weather Service Charleston WV
900 PM EDT TUE JUL 26 2016

Note: "fair" indicates few or no clouds below 12,000 feet with no
significant weather and/or obstructions to visibility.

WVZ003-270200-
Northern Panhandle of West Virginia

CITY           SKY/WX    TMP DP  RH WIND       PRES   REMARKS
WHEELING         N/A     82  62  50 N6        30.00R
$$

WVZ009-270200-
Northwest West Virginia

CITY           SKY/WX    TMP DP  RH WIND       PRES   REMARKS
PARKERSBURG      N/A     74  73  97 W3        30.02S FOG
$$

WVZ006-270200-
Western West Virginia

CITY           SKY/WX    TMP DP  RH WIND       PRES   REMARKS
HUNTINGTON       N/A     74  70  87 NE3       30.01R
$$

WVZ015-270200-
West Central West Virginia

CITY           SKY/WX    TMP DP  RH WIND       PRES   REMARKS
CHARLESTON     MOCLDY    74  72  93 CALM      30.01S
$$

WVZ022-031-270200-
North Central West Virginia

CITY           SKY/WX    TMP DP  RH WIND       PRES   REMARKS
CLARKSBURG     LGT RAIN  74  73  97 SE3       30.00F
MORGANTOWN       N/A     80  72  76 VRB5      30.01S
$$

WVZ025-035-042-045-270200-
Southern West Virginia

CITY           SKY/WX    TMP DP  RH WIND       PRES   REMARKS
BECKLEY        MOCLDY    71  68  90 CALM      30.13R THUNDER
LOGAN            N/A     73  73 100 CALM      30.05R
BLUEFIELD        N/A     78  68  71 NW3       30.13R
LEWISBURG      MOCLDY    76  70  82 NE7       30.09R THUNDER
$$

WVZ047-270200-
Northern Mountains of West Virginia

CITY           SKY/WX    TMP DP  RH WIND       PRES   REMARKS
ELKINS         MOCLDY    73  70  90 CALM      30.06F FOG
$$

WVZ052-270200-
Eastern Panhandle of West Virginia

CITY           SKY/WX    TMP DP  RH WIND       PRES   REMARKS
MARTINSBURG      N/A     82  69  64 SW7       29.94R
PETERSBURG       N/A     80  73  79 CALM      30.00R
$$




USA.gov is the U.S. government's official web portal to all federal, state and local government web resources and services.